This demonstration page uses our WeatherBlox Daily Observations layout. Learn more.

Left ArrowRight Arrow

38.20091, -84.87328

Hourly Observations for July 20, 2017

Temp ( °F °C ) Dew Point ( °F °C ) Humidity (%) Winds ( mph kmh ) Pressure ( in mb ) Visibility ( mi km ) Precip ( " mm )
12:53 am 00:53 Clear 72 22.2 67 19.4 84 84 Calm 30.09 1019 10 16 0.00 0.00
1:53 am 01:53 Clear 72 22.2 67 19.4 84 84 Calm 30.09 1019 10 16 0.00 0.00
2:53 am 02:53 Clear 71 21.7 66 18.9 84 84 Calm 30.08 1019 10 16 0.00 0.00
3:53 am 03:53 Clear 71 21.7 66 18.9 84 84 Calm 30.06 1018 10 16 0.00 0.00
4:53 am 04:53 Mostly Clear 71 21.7 67 19.4 87 87 Calm 30.04 1017 10 16 0.00 0.00
5:53 am 05:53 Clear 70 21.1 66 18.9 87 87 Calm 30.04 1017 9 14 0.00 0.00
6:53 am 06:53 Sunny 70 21.1 66 18.9 87 87 Calm 30.06 1018 7 11 0.00 0.00
7:53 am 07:53 Sunny 74 23.3 68 20 82 82 Calm 30.09 1019 10 16 0.00 0.00
8:53 am 08:53 Sunny 78 25.6 69 20.6 74 74 SW 6 9 30.10 1019 10 16 0.00 0.00
9:53 am 09:53 Sunny 81 27.2 69 20.6 67 67 SW 5 7 30.10 1019 10 16 0.00 0.00
10:18 am 10:18 Hazy 82 27.8 69 20.6 65 65 SSW 6 9 30.12 1020 2 3 0.00 0.00
10:25 am 10:25 undefined 83 28.3 69 20.6 63 63 N 5 7 30.12 1020 N/A 0.00 0.00
10:53 am 10:53 Sunny 84 28.9 74 23.3 72 72 SW 7 11 30.11 1020 10 16 0.00 0.00
11:53 am 11:53 Sunny 86 30 71 21.7 61 61 W 6 9 30.11 1020 10 16 0.00 0.00
12:53 pm 12:53 Sunny 89 31.7 73 22.8 59 59 N 7 11 30.09 1019 10 16 0.00 0.00
1:53 pm 13:53 Mostly Sunny 90 32.2 72 22.2 56 56 N 5 7 30.08 1019 10 16 0.00 0.00
2:53 pm 14:53 Mostly Sunny 89 31.7 72 22.2 57 57 Calm 30.04 1017 10 16 0.00 0.00
3:53 pm 15:53 Mostly Cloudy 89 31.7 72 22.2 57 57 S 7 11 30.03 1017 10 16 0.00 0.00
4:53 pm 16:53 Sunny 92 33.3 70 21.1 49 49 SW 12 19 29.98 1015 10 16 0.00 0.00
5:53 pm 17:53 Mostly Sunny 91 32.8 73 22.8 56 56 N 7 11 29.98 1015 10 16 0.00 0.00
6:53 pm 18:53 Sunny 90 32.2 71 21.7 54 54 W 5 7 29.99 1016 10 16 0.00 0.00
7:53 pm 19:53 Sunny 88 31.1 73 22.8 61 61 SW 7 11 29.98 1015 10 16 0.00 0.00
8:53 pm 20:53 Sunny 84 28.9 73 22.8 70 70 SW 3 6 29.99 1016 10 16 0.00 0.00
9:53 pm 21:53 Clear 83 28.3 72 22.2 70 70 SW 3 6 29.99 1016 10 16 0.00 0.00
10:53 pm 22:53 Clear 80 26.7 73 22.8 79 79 SW 5 7 30.00 1016 9 14 0.00 0.00
11:53 pm 23:53 Clear 79 26.1 72 22.2 79 79 SW 5 7 30.00 1016 8 13 0.00 0.00

Powered by AerisWeather